Time,TemperatureF,DewpointF,PressureIn,WindDirection,WindDirectionDegrees,WindSpeedMPH,WindSpeedGustMPH,Humidity,HourlyPrecipIn,Conditions,Clouds,dailyrainin,SoftwareType,DateUTC
2013-01-08 00:00:00,29.5,23.1,30.17,West,270,5.4,9.4,77,2.59,,,1.55,WUHU216HW,2013-01-08 05:00:00,
2013-01-08 00:01:00,29.5,23.1,30.17,West,270,7.4,9.4,77,2.59,,,1.55,WUHU216HW,2013-01-08 05:01:00,
2013-01-08 00:02:00,29.5,23.1,30.17,West,270,4.7,9.4,77,2.59,,,0.19,WUHU216HW,2013-01-08 05:02:00,
2013-01-08 00:03:00,29.7,23.3,30.17,ENE,68,3.8,9.4,77,2.59,,,0.19,WUHU216HW,2013-01-08 05:03:00,
2013-01-08 00:08:00,29.7,23.3,30.17,West,270,4.7,8.9,77,2.59,,,0.19,WUHU216HW,2013-01-08 05:08:00,
2013-01-08 00:13:00,29.9,23.5,30.17,West,270,4.0,8.9,77,2.59,,,0.19,WUHU216HW,2013-01-08 05:13:00,
2013-01-08 00:18:00,29.9,23.9,30.17,West,270,7.4,7.4,78,2.59,,,0.19,WUHU216HW,2013-01-08 05:18:00,
2013-01-08 00:23:00,29.9,23.5,30.17,West,270,5.6,7.4,77,2.59,,,0.19,WUHU216HW,2013-01-08 05:23:00,
2013-01-08 00:28:00,29.9,23.5,30.17,WSW,248,6.7,7.4,77,2.59,,,0.19,WUHU216HW,2013-01-08 05:28:00,
2013-01-08 00:33:00,30.1,23.7,30.16,WSW,248,2.9,7.6,77,2.59,,,0.19,WUHU216HW,2013-01-08 05:33:00,
2013-01-08 00:38:00,30.1,23.7,30.16,West,270,7.6,9.8,77,2.59,,,0.19,WUHU216HW,2013-01-08 05:38:00,
2013-01-08 00:43:00,30.1,23.7,30.16,West,270,4.9,9.8,77,2.59,,,0.19,WUHU216HW,2013-01-08 05:43:00,
2013-01-08 00:48:00,30.2,23.6,30.16,West,270,8.5,9.2,76,2.59,,,0.19,WUHU216HW,2013-01-08 05:48:00,
2013-01-08 00:53:00,30.2,23.6,30.15,WSW,248,5.4,9.8,76,2.59,,,0.19,WUHU216HW,2013-01-08 05:53:00,
2013-01-08 00:58:00,30.4,23.8,30.15,West,270,4.7,9.8,76,2.59,,,0.19,WUHU216HW,2013-01-08 05:58:00,
2013-01-08 01:03:00,30.6,24.0,30.15,SSW,203,7.2,10.5,76,2.59,,,0.38,WUHU216HW,2013-01-08 06:03:00,
2013-01-08 01:08:00,30.6,23.6,30.15,WSW,248,8.3,10.5,75,2.59,,,0.38,WUHU216HW,2013-01-08 06:08:00,
2013-01-08 01:13:00,30.8,23.8,30.16,WSW,248,8.1,11.4,75,2.59,,,0.38,WUHU216HW,2013-01-08 06:13:00,
2013-01-08 01:18:00,30.8,23.8,30.16,WSW,248,5.4,11.4,75,2.59,,,0.38,WUHU216HW,2013-01-08 06:18:00,
2013-01-08 01:23:00,30.8,23.8,30.15,WNW,293,4.5,9.6,75,2.59,,,0.38,WUHU216HW,2013-01-08 06:23:00,
2013-01-08 01:28:00,31.0,23.6,30.16,North,0,6.9,9.2,74,2.59,,,0.38,WUHU216HW,2013-01-08 06:28:00,
2013-01-08 01:33:00,31.0,23.6,30.16,WSW,248,6.3,9.2,74,2.59,,,0.38,WUHU216HW,2013-01-08 06:33:00,
2013-01-08 01:38:00,31.0,23.6,30.16,West,270,6.9,9.6,74,2.59,,,0.38,WUHU216HW,2013-01-08 06:38:00,
2013-01-08 01:43:00,31.0,23.3,30.15,WSW,248,6.0,9.6,73,2.59,,,0.38,WUHU216HW,2013-01-08 06:43:00,
2013-01-08 01:48:00,31.1,23.5,30.15,SW,225,4.0,11.6,73,2.59,,,0.38,WUHU216HW,2013-01-08 06:48:00,
2013-01-08 01:53:00,31.1,23.5,30.16,SSW,203,3.4,11.6,73,2.59,,,0.38,WUHU216HW,2013-01-08 06:53:00,
2013-01-08 01:58:00,31.1,23.5,30.16,West,270,6.3,8.7,73,2.59,,,0.38,WUHU216HW,2013-01-08 06:58:00,
2013-01-08 02:03:00,31.1,23.5,30.16,West,270,4.3,8.5,73,2.59,,,0.57,WUHU216HW,2013-01-08 07:03:00,
2013-01-08 02:08:00,31.3,23.7,30.16,SSW,203,7.6,10.5,73,2.59,,,0.57,WUHU216HW,2013-01-08 07:08:00,
2013-01-08 02:13:00,31.3,23.3,30.16,SW,225,4.5,12.1,72,2.59,,,0.57,WUHU216HW,2013-01-08 07:13:00,
2013-01-08 02:18:00,31.7,23.4,30.16,SW,225,5.8,12.1,71,2.59,,,0.57,WUHU216HW,2013-01-08 07:18:00,
2013-01-08 02:23:00,31.9,23.6,30.16,WSW,248,9.6,11.4,71,2.59,,,0.57,WUHU216HW,2013-01-08 07:23:00,
2013-01-08 02:28:00,31.9,23.2,30.17,SW,225,8.9,15.7,70,2.59,,,0.57,WUHU216HW,2013-01-08 07:28:00,
2013-01-08 02:33:00,32.0,23.0,30.17,West,270,11.2,15.7,69,2.59,,,0.57,WUHU216HW,2013-01-08 07:33:00,
2013-01-08 02:38:00,32.2,23.2,30.17,West,270,11.4,15.4,69,2.59,,,0.57,WUHU216HW,2013-01-08 07:38:00,
2013-01-08 02:43:00,32.4,23.4,30.17,WNW,293,9.4,15.4,69,2.59,,,0.57,WUHU216HW,2013-01-08 07:43:00,
2013-01-08 02:48:00,32.6,23.5,30.17,West,270,10.5,14.5,69,2.59,,,0.57,WUHU216HW,2013-01-08 07:48:00,
2013-01-08 02:53:00,32.6,23.1,30.17,WNW,293,7.4,14.8,68,2.59,,,0.57,WUHU216HW,2013-01-08 07:53:00,
2013-01-08 02:58:00,32.8,23.3,30.17,West,270,9.8,14.8,68,2.59,,,0.57,WUHU216HW,2013-01-08 07:58:00,
2013-01-08 03:03:00,32.8,23.3,30.17,WSW,248,8.1,13.9,68,2.59,,,0.77,WUHU216HW,2013-01-08 08:03:00,
2013-01-08 03:08:00,32.6,23.1,30.17,WSW,248,5.6,12.8,68,2.59,,,0.77,WUHU216HW,2013-01-08 08:08:00,
2013-01-08 03:13:00,32.6,23.1,30.17,WSW,248,10.5,14.3,68,2.59,,,0.77,WUHU216HW,2013-01-08 08:13:00,
2013-01-08 03:18:00,32.4,23.1,30.17,West,270,8.9,14.3,68,2.59,,,0.77,WUHU216HW,2013-01-08 08:18:00,
2013-01-08 03:23:00,32.6,23.1,30.17,WNW,293,9.2,11.4,68,2.59,,,0.77,WUHU216HW,2013-01-08 08:23:00,
2013-01-08 03:28:00,32.6,23.1,30.17,West,270,10.1,10.7,68,2.59,,,0.77,WUHU216HW,2013-01-08 08:28:00,
2013-01-08 03:33:00,32.4,23.1,30.17,WSW,248,9.6,12.3,68,2.59,,,0.77,WUHU216HW,2013-01-08 08:33:00,
2013-01-08 03:38:00,32.4,23.1,30.16,WSW,248,4.7,12.3,68,2.59,,,0.77,WUHU216HW,2013-01-08 08:38:00,
2013-01-08 03:43:00,32.4,23.1,30.16,WSW,248,11.9,12.1,68,2.59,,,0.77,WUHU216HW,2013-01-08 08:43:00,
2013-01-08 03:48:00,32.4,23.1,30.16,WSW,248,7.2,12.8,68,2.59,,,0.77,WUHU216HW,2013-01-08 08:48:00,
2013-01-08 03:53:00,32.2,22.5,30.16,WSW,248,7.2,12.8,67,2.59,,,0.77,WUHU216HW,2013-01-08 08:53:00,
2013-01-08 03:58:00,32.0,22.7,30.16,WSW,248,8.5,11.9,68,2.59,,,0.77,WUHU216HW,2013-01-08 08:58:00,
2013-01-08 04:03:00,32.0,22.7,30.16,West,270,6.7,12.3,68,2.59,,,0.96,WUHU216HW,2013-01-08 09:03:00,
2013-01-08 04:08:00,32.0,22.7,30.16,WSW,248,7.2,12.3,68,2.59,,,0.96,WUHU216HW,2013-01-08 09:08:00,
2013-01-08 04:13:00,32.0,22.7,30.16,SW,225,5.6,11.9,68,2.59,,,0.96,WUHU216HW,2013-01-08 09:13:00,
2013-01-08 04:18:00,31.9,22.1,30.16,WSW,248,8.1,12.5,67,2.59,,,0.96,WUHU216HW,2013-01-08 09:18:00,
2013-01-08 04:23:00,31.9,22.5,30.16,West,270,6.7,12.5,68,2.59,,,0.96,WUHU216HW,2013-01-08 09:23:00,
2013-01-08 04:28:00,31.9,22.1,30.17,West,270,7.6,10.5,67,2.59,,,0.96,WUHU216HW,2013-01-08 09:28:00,
2013-01-08 04:33:00,31.7,22.0,30.17,WSW,248,6.7,10.5,67,2.59,,,0.96,WUHU216HW,2013-01-08 09:33:00,
2013-01-08 04:38:00,31.7,22.0,30.17,WSW,248,5.4,11.0,67,2.59,,,0.96,WUHU216HW,2013-01-08 09:38:00,
2013-01-08 04:43:00,31.7,22.0,30.17,WSW,248,7.2,11.0,67,2.59,,,0.96,WUHU216HW,2013-01-08 09:43:00,
2013-01-08 04:48:00,31.9,22.1,30.16,WSW,248,10.5,10.7,67,2.59,,,0.96,WUHU216HW,2013-01-08 09:48:00,
2013-01-08 04:53:00,31.9,22.1,30.17,West,270,4.9,10.7,67,2.59,,,0.96,WUHU216HW,2013-01-08 09:53:00,
2013-01-08 04:58:00,31.9,22.1,30.17,West,270,4.7,11.6,67,2.59,,,0.96,WUHU216HW,2013-01-08 09:58:00,
2013-01-08 05:03:00,31.7,22.0,30.17,West,270,7.6,11.6,67,2.59,,,1.15,WUHU216HW,2013-01-08 10:03:00,
2013-01-08 05:08:00,31.7,22.0,30.17,West,270,9.8,10.7,67,2.59,,,1.15,WUHU216HW,2013-01-08 10:08:00,
2013-01-08 05:13:00,31.5,21.8,30.17,West,270,7.6,11.4,67,2.59,,,1.15,WUHU216HW,2013-01-08 10:13:00,
2013-01-08 05:18:00,31.5,21.8,30.17,WNW,293,6.9,11.4,67,2.59,,,1.15,WUHU216HW,2013-01-08 10:18:00,
2013-01-08 05:23:00,31.5,22.1,30.18,WSW,248,5.1,12.1,68,2.59,,,1.15,WUHU216HW,2013-01-08 10:23:00,
2013-01-08 05:28:00,31.5,22.1,30.17,SSW,203,3.6,12.1,68,2.59,,,1.15,WUHU216HW,2013-01-08 10:28:00,
2013-01-08 05:33:00,31.3,22.0,30.18,SW,225,7.4,13.4,68,2.59,,,1.15,WUHU216HW,2013-01-08 10:33:00,
2013-01-08 05:38:00,31.3,22.0,30.18,West,270,6.5,13.4,68,2.59,,,1.15,WUHU216HW,2013-01-08 10:38:00,
2013-01-08 05:43:00,31.3,22.0,30.18,WSW,248,10.3,10.3,68,2.59,,,1.15,WUHU216HW,2013-01-08 10:43:00,
2013-01-08 05:48:00,31.3,22.0,30.17,West,270,6.3,10.5,68,2.59,,,1.15,WUHU216HW,2013-01-08 10:48:00,
2013-01-08 05:53:00,31.3,22.0,30.18,West,270,5.4,10.5,68,2.59,,,1.15,WUHU216HW,2013-01-08 10:53:00,
2013-01-08 05:58:00,31.3,22.0,30.18,SW,225,7.8,12.3,68,2.59,,,1.15,WUHU216HW,2013-01-08 10:58:00,
2013-01-08 06:03:00,31.3,22.0,30.18,WSW,248,4.7,12.3,68,2.59,,,1.35,WUHU216HW,2013-01-08 11:03:00,
2013-01-08 06:08:00,31.3,22.0,30.18,West,270,7.2,12.8,68,2.59,,,1.35,WUHU216HW,2013-01-08 11:08:00,
2013-01-08 06:13:00,31.3,22.0,30.18,WNW,293,6.5,12.8,68,2.59,,,1.35,WUHU216HW,2013-01-08 11:13:00,
2013-01-08 06:18:00,31.3,22.0,30.18,WSW,248,7.4,10.5,68,2.59,,,1.35,WUHU216HW,2013-01-08 11:18:00,
2013-01-08 06:23:00,31.3,22.0,30.18,West,270,5.6,13.4,68,2.59,,,1.35,WUHU216HW,2013-01-08 11:23:00,
2013-01-08 06:28:00,31.3,22.0,30.19,West,270,9.8,13.4,68,2.59,,,1.35,WUHU216HW,2013-01-08 11:28:00,
2013-01-08 06:33:00,31.3,22.0,30.19,WSW,248,6.7,10.7,68,2.59,,,1.35,WUHU216HW,2013-01-08 11:33:00,
2013-01-08 06:38:00,31.1,22.1,30.19,WSW,248,8.1,9.8,69,2.59,,,1.35,WUHU216HW,2013-01-08 11:38:00,
2013-01-08 06:43:00,31.1,22.1,30.19,WSW,248,7.8,10.5,69,2.59,,,1.35,WUHU216HW,2013-01-08 11:43:00,
2013-01-08 06:48:00,31.0,22.0,30.20,West,270,4.9,10.5,69,2.59,,,1.35,WUHU216HW,2013-01-08 11:48:00,
2013-01-08 06:53:00,30.8,21.8,30.20,WSW,248,7.6,10.1,69,2.59,,,1.35,WUHU216HW,2013-01-08 11:53:00,
2013-01-08 06:58:00,30.8,22.1,30.20,West,270,9.2,10.1,70,2.59,,,1.35,WUHU216HW,2013-01-08 11:58:00,
2013-01-08 07:03:00,30.8,22.1,30.20,West,270,7.6,9.2,70,2.59,,,1.54,WUHU216HW,2013-01-08 12:03:00,
2013-01-08 07:08:00,30.6,22.0,30.20,WSW,248,6.5,11.4,70,2.59,,,1.54,WUHU216HW,2013-01-08 12:08:00,
2013-01-08 07:13:00,30.6,22.0,30.21,West,270,5.4,11.4,70,2.59,,,1.54,WUHU216HW,2013-01-08 12:13:00,
2013-01-08 07:18:00,30.6,22.0,30.20,West,270,4.7,9.8,70,2.59,,,1.54,WUHU216HW,2013-01-08 12:18:00,
2013-01-08 07:23:00,30.6,22.0,30.21,West,270,3.8,9.8,70,2.59,,,1.54,WUHU216HW,2013-01-08 12:23:00,
2013-01-08 07:28:00,30.6,22.0,30.21,WSW,248,6.7,9.8,70,2.59,,,1.54,WUHU216HW,2013-01-08 12:28:00,
2013-01-08 07:33:00,30.6,22.0,30.21,WSW,248,6.7,9.8,70,2.59,,,1.54,WUHU216HW,2013-01-08 12:33:00,
2013-01-08 07:38:00,30.6,22.0,30.22,WSW,248,5.4,8.3,70,2.59,,,1.54,WUHU216HW,2013-01-08 12:38:00,
2013-01-08 07:43:00,30.6,22.3,30.22,WSW,248,5.1,10.3,71,2.59,,,1.54,WUHU216HW,2013-01-08 12:43:00,
2013-01-08 07:48:00,30.6,22.3,30.22,West,270,5.4,10.3,71,2.59,,,1.54,WUHU216HW,2013-01-08 12:48:00,
2013-01-08 07:53:00,30.6,22.3,30.22,West,270,6.3,9.4,71,2.59,,,1.54,WUHU216HW,2013-01-08 12:53:00,
2013-01-08 07:58:00,30.6,22.3,30.22,SSW,203,5.4,8.9,71,2.59,,,1.54,WUHU216HW,2013-01-08 12:58:00,
2013-01-08 08:03:00,30.6,22.3,30.22,West,270,5.1,8.9,71,2.59,,,1.73,WUHU216HW,2013-01-08 13:03:00,
2013-01-08 08:08:00,30.6,22.3,30.22,West,270,4.7,8.9,71,2.59,,,1.73,WUHU216HW,2013-01-08 13:08:00,
2013-01-08 08:13:00,30.8,22.5,30.22,WSW,248,3.8,8.5,71,2.59,,,1.73,WUHU216HW,2013-01-08 13:13:00,
2013-01-08 08:18:00,30.8,22.8,30.22,SSW,203,4.0,9.8,72,2.59,,,1.73,WUHU216HW,2013-01-08 13:18:00,
2013-01-08 08:23:00,30.8,22.8,30.23,WNW,293,5.4,9.8,72,2.59,,,1.73,WUHU216HW,2013-01-08 13:23:00,
2013-01-08 08:28:00,31.0,23.0,30.23,WSW,248,4.5,8.7,72,2.59,,,1.73,WUHU216HW,2013-01-08 13:28:00,
2013-01-08 08:33:00,31.1,23.1,30.23,WSW,248,5.6,8.7,72,2.59,,,1.73,WUHU216HW,2013-01-08 13:33:00,
2013-01-08 08:38:00,31.3,23.3,30.23,WNW,293,5.4,8.5,72,2.59,,,1.73,WUHU216HW,2013-01-08 13:38:00,
2013-01-08 08:43:00,31.3,23.3,30.23,West,270,7.4,8.5,72,2.59,,,1.73,WUHU216HW,2013-01-08 13:43:00,
2013-01-08 08:48:00,31.3,23.1,30.23,WNW,293,7.6,8.5,71,2.59,,,1.73,WUHU216HW,2013-01-08 13:48:00,
2013-01-08 08:53:00,31.5,23.2,30.23,West,270,5.1,9.2,71,2.59,,,1.73,WUHU216HW,2013-01-08 13:53:00,
2013-01-08 08:58:00,31.7,23.4,30.23,WSW,248,3.4,11.4,71,2.59,,,1.73,WUHU216HW,2013-01-08 13:58:00,
2013-01-08 09:03:00,31.7,23.4,30.24,WSW,248,5.4,11.4,71,2.59,,,1.93,WUHU216HW,2013-01-08 14:03:00,
2013-01-08 09:08:00,32.0,23.8,30.24,West,270,7.2,10.7,71,2.59,,,1.93,WUHU216HW,2013-01-08 14:08:00,
2013-01-08 09:13:00,32.2,23.9,30.24,WSW,248,8.5,11.0,71,2.59,,,1.93,WUHU216HW,2013-01-08 14:13:00,
2013-01-08 09:18:00,32.4,24.0,30.24,WSW,248,7.6,12.5,71,2.59,,,1.93,WUHU216HW,2013-01-08 14:18:00,
2013-01-08 09:23:00,32.6,24.2,30.24,SW,225,6.3,12.5,71,2.59,,,1.93,WUHU216HW,2013-01-08 14:23:00,
2013-01-08 09:28:00,32.9,24.6,30.25,WSW,248,10.5,10.5,71,2.59,,,1.93,WUHU216HW,2013-01-08 14:28:00,
2013-01-08 09:33:00,33.1,24.4,30.25,West,270,5.6,10.5,70,2.59,,,1.93,WUHU216HW,2013-01-08 14:33:00,
2013-01-08 09:38:00,33.5,24.7,30.25,West,270,7.6,10.5,70,2.59,,,1.93,WUHU216HW,2013-01-08 14:38:00,
2013-01-08 09:43:00,33.7,24.8,30.26,West,270,5.8,9.6,70,2.59,,,1.93,WUHU216HW,2013-01-08 14:43:00,
2013-01-08 09:48:00,34.0,25.2,30.26,West,270,8.7,11.2,70,2.59,,,1.93,WUHU216HW,2013-01-08 14:48:00,
2013-01-08 09:53:00,34.2,25.4,30.26,WSW,248,7.6,11.2,70,2.59,,,1.93,WUHU216HW,2013-01-08 14:53:00,
2013-01-08 09:58:00,34.4,25.6,30.26,West,270,8.9,14.1,70,2.59,,,1.93,WUHU216HW,2013-01-08 14:58:00,
2013-01-08 10:03:00,34.9,26.1,30.26,West,270,6.3,14.1,70,2.59,,,2.12,WUHU216HW,2013-01-08 15:03:00,
2013-01-08 10:08:00,35.3,26.5,30.26,West,270,7.6,10.3,70,2.59,,,2.12,WUHU216HW,2013-01-08 15:08:00,
2013-01-08 10:13:00,35.8,26.7,30.26,West,270,8.9,12.5,69,2.59,,,2.12,WUHU216HW,2013-01-08 15:13:00,
2013-01-08 10:18:00,36.5,27.0,30.26,WSW,248,10.5,13.6,68,2.59,,,2.12,WUHU216HW,2013-01-08 15:18:00,
2013-01-08 10:23:00,36.9,27.4,30.26,West,270,8.9,13.6,68,2.59,,,2.12,WUHU216HW,2013-01-08 15:23:00,
2013-01-08 10:28:00,37.1,27.6,30.26,WNW,293,9.2,12.8,68,2.59,,,2.12,WUHU216HW,2013-01-08 15:28:00,
2013-01-08 10:33:00,37.1,27.2,30.26,West,270,9.2,12.5,67,2.59,,,2.12,WUHU216HW,2013-01-08 15:33:00,
2013-01-08 10:38:00,37.6,27.6,30.26,West,270,13.4,13.4,67,2.59,,,2.12,WUHU216HW,2013-01-08 15:38:00,
2013-01-08 10:43:00,37.8,27.8,30.27,West,270,11.9,13.4,67,2.59,,,2.12,WUHU216HW,2013-01-08 15:43:00,
2013-01-08 10:48:00,37.6,27.6,30.26,WNW,293,14.1,16.3,67,2.59,,,2.12,WUHU216HW,2013-01-08 15:48:00,
2013-01-08 10:53:00,37.4,27.5,30.26,West,270,11.0,16.3,67,2.59,,,2.12,WUHU216HW,2013-01-08 15:53:00,
2013-01-08 10:58:00,37.4,27.5,30.26,West,270,13.6,14.1,67,2.59,,,2.12,WUHU216HW,2013-01-08 15:58:00,
2013-01-08 11:03:00,37.6,27.6,30.26,WSW,248,11.2,13.9,67,2.59,,,2.31,WUHU216HW,2013-01-08 16:03:00,
2013-01-08 11:08:00,37.8,27.8,30.26,SW,225,12.3,14.5,67,2.59,,,2.31,WUHU216HW,2013-01-08 16:08:00,
2013-01-08 11:13:00,37.8,27.8,30.26,West,270,10.7,14.5,67,2.59,,,2.31,WUHU216HW,2013-01-08 16:13:00,
2013-01-08 11:18:00,38.0,28.0,30.26,West,270,6.9,14.5,67,2.59,,,2.31,WUHU216HW,2013-01-08 16:18:00,
2013-01-08 11:23:00,38.2,28.2,30.26,WSW,248,5.6,17.0,67,2.59,,,2.31,WUHU216HW,2013-01-08 16:23:00,
2013-01-08 11:28:00,38.5,28.4,30.26,West,270,11.4,17.0,67,2.59,,,2.31,WUHU216HW,2013-01-08 16:28:00,
2013-01-08 11:33:00,38.5,28.4,30.26,West,270,9.4,13.4,67,2.59,,,2.31,WUHU216HW,2013-01-08 16:33:00,
2013-01-08 11:38:00,38.5,28.4,30.26,West,270,11.2,13.9,67,2.59,,,2.31,WUHU216HW,2013-01-08 16:38:00,
2013-01-08 11:43:00,38.5,28.1,30.26,West,270,6.7,13.9,66,2.59,,,2.31,WUHU216HW,2013-01-08 16:43:00,
2013-01-08 11:48:00,38.9,28.5,30.26,WSW,248,6.3,13.0,66,2.59,,,2.31,WUHU216HW,2013-01-08 16:48:00,
2013-01-08 11:53:00,39.2,28.7,30.26,West,270,8.7,10.3,66,2.59,,,2.31,WUHU216HW,2013-01-08 16:53:00,
2013-01-08 11:58:00,39.6,29.1,30.26,WNW,293,9.4,11.4,66,2.59,,,2.31,WUHU216HW,2013-01-08 16:58:00,
2013-01-08 12:03:00,40.0,29.4,30.26,SW,225,2.5,11.4,66,2.59,,,2.50,WUHU216HW,2013-01-08 17:03:00,
2013-01-08 12:08:00,40.1,30.0,30.26,West,270,5.6,10.5,67,2.59,,,2.50,WUHU216HW,2013-01-08 17:08:00,
2013-01-08 12:13:00,40.3,30.2,30.26,SW,225,8.1,10.5,67,2.59,,,2.50,WUHU216HW,2013-01-08 17:13:00,
2013-01-08 12:18:00,40.0,29.1,30.26,West,270,9.4,12.1,65,2.59,,,2.50,WUHU216HW,2013-01-08 17:18:00,
2013-01-08 12:23:00,39.6,28.7,30.26,WSW,248,9.2,12.1,65,2.59,,,2.50,WUHU216HW,2013-01-08 17:23:00,
2013-01-08 12:28:00,39.1,28.5,30.26,WSW,248,10.1,12.3,66,2.59,,,2.50,WUHU216HW,2013-01-08 17:28:00,
2013-01-08 12:33:00,38.7,28.3,30.26,West,270,12.1,12.5,66,2.59,,,2.50,WUHU216HW,2013-01-08 17:33:00,
2013-01-08 12:38:00,38.7,28.6,30.26,West,270,8.1,12.5,67,2.59,,,2.50,WUHU216HW,2013-01-08 17:38:00,
2013-01-08 12:43:00,38.7,28.6,30.26,WNW,293,8.5,14.5,67,2.59,,,2.50,WUHU216HW,2013-01-08 17:43:00,
2013-01-08 12:48:00,38.9,28.8,30.26,West,270,5.8,14.5,67,2.59,,,2.50,WUHU216HW,2013-01-08 17:48:00,
2013-01-08 12:53:00,38.9,28.8,30.26,NW,315,9.4,13.0,67,2.59,,,2.50,WUHU216HW,2013-01-08 17:53:00,
2013-01-08 12:58:00,38.9,28.8,30.26,West,270,10.1,14.8,67,2.59,,,2.50,WUHU216HW,2013-01-08 17:58:00,
2013-01-08 13:03:00,38.9,28.8,30.25,West,270,9.4,14.8,67,2.59,,,2.70,WUHU216HW,2013-01-08 18:03:00,
2013-01-08 13:08:00,39.1,29.0,30.26,WNW,293,10.5,13.0,67,2.59,,,2.70,WUHU216HW,2013-01-08 18:08:00,
2013-01-08 13:13:00,38.9,28.5,30.25,WNW,293,12.3,13.0,66,2.59,,,2.70,WUHU216HW,2013-01-08 18:13:00,
2013-01-08 13:18:00,39.1,29.0,30.25,NW,315,9.2,13.0,67,2.59,,,2.70,WUHU216HW,2013-01-08 18:18:00,
2013-01-08 13:23:00,39.2,29.1,30.25,WNW,293,8.3,12.3,67,2.59,,,2.70,WUHU216HW,2013-01-08 18:23:00,
2013-01-08 13:28:00,39.2,29.1,30.26,West,270,7.2,12.1,67,2.59,,,2.70,WUHU216HW,2013-01-08 18:28:00,
2013-01-08 13:33:00,39.2,29.1,30.26,West,270,8.7,11.6,67,2.59,,,2.70,WUHU216HW,2013-01-08 18:33:00,
2013-01-08 13:38:00,39.1,29.0,30.26,West,270,7.4,14.1,67,2.59,,,2.70,WUHU216HW,2013-01-08 18:38:00,
2013-01-08 13:43:00,39.2,29.1,30.26,WSW,248,8.9,14.1,67,2.59,,,2.70,WUHU216HW,2013-01-08 18:43:00,
2013-01-08 13:48:00,39.6,29.4,30.26,WNW,293,6.9,9.6,67,2.59,,,2.70,WUHU216HW,2013-01-08 18:48:00,
2013-01-08 13:53:00,40.0,29.8,30.26,West,270,5.8,11.6,67,2.59,,,2.70,WUHU216HW,2013-01-08 18:53:00,
2013-01-08 13:58:00,40.0,29.8,30.25,NW,315,8.3,13.4,67,2.59,,,2.70,WUHU216HW,2013-01-08 18:58:00,
2013-01-08 14:03:00,39.8,29.6,30.25,West,270,9.2,13.4,67,2.59,,,2.89,WUHU216HW,2013-01-08 19:03:00,
2013-01-08 14:08:00,39.8,29.6,30.26,NW,315,5.8,10.5,67,2.59,,,2.89,WUHU216HW,2013-01-08 19:08:00,
2013-01-08 14:13:00,39.8,29.6,30.26,WSW,248,5.1,10.5,67,2.59,,,2.89,WUHU216HW,2013-01-08 19:13:00,
2013-01-08 14:18:00,40.0,29.8,30.26,WNW,293,5.8,10.5,67,2.59,,,2.89,WUHU216HW,2013-01-08 19:18:00,
2013-01-08 14:23:00,40.3,30.2,30.26,SW,225,4.7,8.7,67,2.59,,,2.89,WUHU216HW,2013-01-08 19:23:00,
2013-01-08 14:28:00,40.3,30.2,30.26,West,270,4.7,8.7,67,2.59,,,2.89,WUHU216HW,2013-01-08 19:28:00,
2013-01-08 14:33:00,40.3,30.2,30.26,West,270,6.3,8.9,67,2.59,,,2.89,WUHU216HW,2013-01-08 19:33:00,
2013-01-08 14:38:00,40.3,30.2,30.26,West,270,5.8,8.9,67,2.59,,,2.89,WUHU216HW,2013-01-08 19:38:00,
2013-01-08 14:43:00,40.1,30.0,30.26,WNW,293,4.3,7.4,67,2.59,,,2.89,WUHU216HW,2013-01-08 19:43:00,
2013-01-08 14:48:00,40.0,29.8,30.26,West,270,6.0,6.3,67,2.59,,,2.89,WUHU216HW,2013-01-08 19:48:00,
2013-01-08 14:53:00,40.0,29.8,30.26,NW,315,2.5,6.9,67,2.59,,,2.89,WUHU216HW,2013-01-08 19:53:00,
2013-01-08 14:58:00,39.8,29.6,30.26,West,270,4.7,6.9,67,2.59,,,2.89,WUHU216HW,2013-01-08 19:58:00,
2013-01-08 15:03:00,39.6,29.4,30.26,West,270,4.9,6.3,67,2.59,,,3.09,WUHU216HW,2013-01-08 20:03:00,
2013-01-08 15:08:00,39.4,29.7,30.27,NW,315,5.8,8.5,68,2.59,,,3.09,WUHU216HW,2013-01-08 20:08:00,
2013-01-08 15:13:00,39.4,29.7,30.27,West,270,6.0,8.5,68,2.59,,,3.09,WUHU216HW,2013-01-08 20:13:00,
2013-01-08 15:18:00,39.4,29.7,30.27,West,270,3.1,6.9,68,2.59,,,3.09,WUHU216HW,2013-01-08 20:18:00,
2013-01-08 15:23:00,39.6,30.3,30.27,West,270,2.9,6.9,69,2.59,,,3.09,WUHU216HW,2013-01-08 20:23:00,
2013-01-08 15:28:00,39.8,30.4,30.27,WSW,248,2.7,6.0,69,2.59,,,3.09,WUHU216HW,2013-01-08 20:28:00,
2013-01-08 15:33:00,40.0,30.6,30.27,WNW,293,2.9,6.0,69,2.59,,,3.09,WUHU216HW,2013-01-08 20:33:00,
2013-01-08 15:38:00,40.1,30.8,30.28,WNW,293,6.7,6.7,69,2.59,,,3.09,WUHU216HW,2013-01-08 20:38:00,
2013-01-08 15:43:00,40.0,30.6,30.28,WNW,293,4.7,6.7,69,2.59,,,3.09,WUHU216HW,2013-01-08 20:43:00,
2013-01-08 15:48:00,39.6,30.3,30.28,West,270,2.5,6.7,69,2.59,,,3.09,WUHU216HW,2013-01-08 20:48:00,
2013-01-08 15:53:00,39.2,29.9,30.28,West,270,3.4,7.4,69,2.59,,,3.09,WUHU216HW,2013-01-08 20:53:00,
2013-01-08 15:58:00,39.2,29.9,30.28,WSW,248,5.4,7.4,69,2.59,,,3.09,WUHU216HW,2013-01-08 20:58:00,
2013-01-08 16:03:00,39.2,30.2,30.28,WSW,248,2.7,6.5,70,2.59,,,3.28,WUHU216HW,2013-01-08 21:03:00,
2013-01-08 16:08:00,38.9,29.9,30.28,West,270,3.4,6.5,70,2.59,,,3.28,WUHU216HW,2013-01-08 21:08:00,
2013-01-08 16:13:00,38.7,29.8,30.28,WNW,293,6.3,6.3,70,2.59,,,3.28,WUHU216HW,2013-01-08 21:13:00,
2013-01-08 16:18:00,38.5,29.6,30.28,West,270,3.4,6.3,70,2.59,,,3.28,WUHU216HW,2013-01-08 21:18:00,
2013-01-08 16:23:00,38.3,29.4,30.28,WSW,248,1.3,5.1,70,2.59,,,3.28,WUHU216HW,2013-01-08 21:23:00,
2013-01-08 16:28:00,38.0,29.4,30.28,WNW,293,2.2,4.7,71,2.59,,,3.28,WUHU216HW,2013-01-08 21:28:00,
2013-01-08 16:33:00,37.8,29.3,30.28,West,270,1.3,4.7,71,2.59,,,3.28,WUHU216HW,2013-01-08 21:33:00,
2013-01-08 16:38:00,37.6,29.1,30.29,WSW,248,2.5,4.5,71,2.59,,,3.28,WUHU216HW,2013-01-08 21:38:00,
2013-01-08 16:43:00,37.4,29.0,30.29,WNW,293,1.8,3.4,71,2.59,,,3.28,WUHU216HW,2013-01-08 21:43:00,
2013-01-08 16:48:00,37.1,28.9,30.29,WNW,293,2.7,3.6,72,2.59,,,3.28,WUHU216HW,2013-01-08 21:48:00,
2013-01-08 16:53:00,36.7,28.5,30.29,West,270,2.0,3.6,72,2.59,,,3.28,WUHU216HW,2013-01-08 21:53:00,
2013-01-08 16:58:00,36.4,28.2,30.29,West,270,2.0,2.9,72,2.59,,,3.28,WUHU216HW,2013-01-08 21:58:00,
2013-01-08 17:03:00,36.4,28.5,30.29,West,270,2.0,2.5,73,2.59,,,3.47,WUHU216HW,2013-01-08 22:03:00,
2013-01-08 17:08:00,36.0,28.2,30.30,West,270,1.8,2.2,73,2.59,,,3.47,WUHU216HW,2013-01-08 22:08:00,
2013-01-08 17:13:00,35.8,28.0,30.30,WSW,248,1.3,2.5,73,2.59,,,3.47,WUHU216HW,2013-01-08 22:13:00,
2013-01-08 17:18:00,35.6,27.8,30.30,SW,225,0.0,2.5,73,2.59,,,3.47,WUHU216HW,2013-01-08 22:18:00,
2013-01-08 17:23:00,35.5,27.6,30.30,SSW,203,0.0,1.3,73,2.59,,,3.47,WUHU216HW,2013-01-08 22:23:00,
2013-01-08 17:28:00,35.1,27.3,30.30,SSE,158,0.0,0.0,73,2.59,,,3.47,WUHU216HW,2013-01-08 22:28:00,
2013-01-08 17:33:00,34.9,27.1,30.30,South,180,0.4,1.1,73,2.59,,,3.47,WUHU216HW,2013-01-08 22:33:00,
2013-01-08 17:38:00,34.6,27.0,30.30,South,180,1.1,1.1,74,2.59,,,3.47,WUHU216HW,2013-01-08 22:38:00,
2013-01-08 17:43:00,34.4,26.8,30.30,SW,225,1.3,2.0,74,2.59,,,3.47,WUHU216HW,2013-01-08 22:43:00,
2013-01-08 17:48:00,34.2,27.0,30.30,WSW,248,0.9,2.5,75,2.59,,,3.47,WUHU216HW,2013-01-08 22:48:00,
2013-01-08 17:53:00,34.0,26.8,30.30,SSE,158,0.0,2.5,75,2.59,,,3.47,WUHU216HW,2013-01-08 22:53:00,
2013-01-08 17:58:00,33.8,26.6,30.30,ESE,113,0.0,1.6,75,2.59,,,3.47,WUHU216HW,2013-01-08 22:58:00,
2013-01-08 18:03:00,33.7,26.8,30.30,SSE,158,0.0,0.0,76,2.59,,,3.67,WUHU216HW,2013-01-08 23:03:00,
2013-01-08 18:08:00,33.5,26.6,30.29,SSE,158,0.0,0.4,76,2.59,,,3.67,WUHU216HW,2013-01-08 23:08:00,
2013-01-08 18:13:00,33.5,26.6,30.30,ESE,113,0.0,0.7,76,2.59,,,3.67,WUHU216HW,2013-01-08 23:13:00,
2013-01-08 18:18:00,33.3,26.5,30.30,East,90,0.0,0.7,76,2.59,,,3.67,WUHU216HW,2013-01-08 23:18:00,
2013-01-08 18:23:00,33.1,26.3,30.29,ESE,113,0.0,0.9,76,2.59,,,3.67,WUHU216HW,2013-01-08 23:23:00,
2013-01-08 18:28:00,32.9,26.2,30.29,ESE,113,0.0,0.9,76,2.59,,,3.67,WUHU216HW,2013-01-08 23:28:00,
2013-01-08 18:33:00,32.8,26.0,30.29,ESE,113,0.0,0.9,76,2.59,,,3.67,WUHU216HW,2013-01-08 23:33:00,
2013-01-08 18:38:00,32.8,26.3,30.29,ESE,113,0.4,0.7,77,2.59,,,3.67,WUHU216HW,2013-01-08 23:38:00,
2013-01-08 18:43:00,32.6,26.2,30.29,ESE,113,0.0,0.7,77,2.59,,,3.67,WUHU216HW,2013-01-08 23:43:00,
2013-01-08 18:48:00,32.4,26.0,30.29,ESE,113,0.0,0.4,77,2.59,,,3.67,WUHU216HW,2013-01-08 23:48:00,
2013-01-08 18:53:00,32.0,25.7,30.30,ESE,113,0.0,0.4,77,2.59,,,3.67,WUHU216HW,2013-01-08 23:53:00,
2013-01-08 18:58:00,32.0,26.0,30.29,ESE,113,0.0,0.4,78,2.59,,,3.67,WUHU216HW,2013-01-08 23:58:00,
2013-01-08 19:03:00,31.9,25.8,30.29,ESE,113,0.0,0.4,78,2.59,,,3.86,WUHU216HW,2013-01-09 00:03:00,
2013-01-08 19:08:00,31.7,25.7,30.29,SSE,158,0.0,0.0,78,2.59,,,3.86,WUHU216HW,2013-01-09 00:08:00,
2013-01-08 19:13:00,31.5,25.5,30.29,SSE,158,0.9,1.1,78,2.59,,,3.86,WUHU216HW,2013-01-09 00:13:00,
2013-01-08 19:18:00,31.3,25.3,30.29,SSE,158,0.0,1.3,78,2.59,,,3.86,WUHU216HW,2013-01-09 00:18:00,
2013-01-08 19:23:00,31.3,25.3,30.29,SSE,158,1.1,1.3,78,2.59,,,3.86,WUHU216HW,2013-01-09 00:23:00,
2013-01-08 19:28:00,31.1,25.1,30.29,SE,135,1.1,2.0,78,2.59,,,3.86,WUHU216HW,2013-01-09 00:28:00,
2013-01-08 19:33:00,31.0,24.9,30.29,SSE,158,1.6,3.6,78,2.59,,,3.86,WUHU216HW,2013-01-09 00:33:00,
2013-01-08 19:38:00,31.0,24.9,30.29,SSE,158,1.1,3.6,78,2.59,,,3.86,WUHU216HW,2013-01-09 00:38:00,
2013-01-08 19:43:00,31.0,24.9,30.29,SSE,158,1.3,2.9,78,2.59,,,3.86,WUHU216HW,2013-01-09 00:43:00,
2013-01-08 19:48:00,31.0,25.2,30.29,SE,135,1.6,2.0,79,2.59,,,3.86,WUHU216HW,2013-01-09 00:48:00,
2013-01-08 19:53:00,31.0,25.2,30.29,South,180,1.8,2.0,79,2.59,,,3.86,WUHU216HW,2013-01-09 00:53:00,
2013-01-08 19:58:00,30.8,25.0,30.29,SSE,158,0.4,1.8,79,2.59,,,3.86,WUHU216HW,2013-01-09 00:58:00,
2013-01-08 20:03:00,30.8,24.8,30.29,SSE,158,1.8,2.0,78,2.59,,,4.05,WUHU216HW,2013-01-09 01:03:00,
2013-01-08 20:08:00,30.6,24.6,30.29,SSE,158,1.6,2.2,78,2.59,,,4.05,WUHU216HW,2013-01-09 01:08:00,
2013-01-08 20:13:00,30.4,24.4,30.29,SE,135,1.8,2.2,78,2.59,,,4.05,WUHU216HW,2013-01-09 01:13:00,
2013-01-08 20:18:00,30.2,24.5,30.29,South,180,1.6,2.5,79,2.59,,,4.05,WUHU216HW,2013-01-09 01:18:00,
2013-01-08 20:23:00,30.2,24.5,30.29,SSE,158,0.4,2.5,79,2.59,,,4.05,WUHU216HW,2013-01-09 01:23:00,
2013-01-08 20:28:00,30.2,24.5,30.29,South,180,2.5,2.5,79,2.59,,,4.05,WUHU216HW,2013-01-09 01:28:00,
2013-01-08 20:33:00,30.2,24.5,30.28,SSE,158,1.1,2.5,79,2.59,,,4.05,WUHU216HW,2013-01-09 01:33:00,
2013-01-08 20:38:00,30.2,24.5,30.28,SSE,158,0.9,2.7,79,2.59,,,4.05,WUHU216HW,2013-01-09 01:38:00,
2013-01-08 20:43:00,30.2,24.5,30.28,SSE,158,0.0,2.7,79,2.59,,,4.05,WUHU216HW,2013-01-09 01:43:00,
2013-01-08 20:48:00,30.2,24.2,30.28,SSW,203,0.4,2.0,78,2.59,,,4.05,WUHU216HW,2013-01-09 01:48:00,
2013-01-08 20:53:00,30.2,24.2,30.28,South,180,1.8,2.2,78,2.59,,,4.05,WUHU216HW,2013-01-09 01:53:00,
2013-01-08 20:58:00,30.2,24.2,30.28,SW,225,0.0,2.2,78,2.59,,,4.05,WUHU216HW,2013-01-09 01:58:00,
2013-01-08 21:03:00,30.2,24.2,30.28,SSW,203,0.0,1.8,78,2.59,,,4.24,WUHU216HW,2013-01-09 02:03:00,
2013-01-08 21:08:00,30.1,24.0,30.28,SSE,158,0.0,1.1,78,2.59,,,4.24,WUHU216HW,2013-01-09 02:08:00,
2013-01-08 21:13:00,29.9,23.9,30.28,SSE,158,0.4,1.6,78,2.59,,,4.24,WUHU216HW,2013-01-09 02:13:00,
2013-01-08 21:18:00,29.9,23.9,30.28,SW,225,0.4,1.6,78,2.59,,,4.24,WUHU216HW,2013-01-09 02:18:00,
2013-01-08 21:23:00,29.7,23.7,30.28,West,270,0.9,1.1,78,2.59,,,4.24,WUHU216HW,2013-01-09 02:23:00,
2013-01-08 21:28:00,29.5,23.5,30.28,SSW,203,1.6,2.0,78,2.59,,,4.24,WUHU216HW,2013-01-09 02:28:00,
2013-01-08 21:33:00,29.5,23.1,30.28,SSW,203,0.7,3.1,77,2.59,,,4.24,WUHU216HW,2013-01-09 02:33:00,
2013-01-08 21:38:00,29.3,23.0,30.29,WSW,248,1.6,3.1,77,2.59,,,4.24,WUHU216HW,2013-01-09 02:38:00,
2013-01-08 21:43:00,29.3,23.0,30.29,SSW,203,1.8,3.1,77,2.59,,,4.24,WUHU216HW,2013-01-09 02:43:00,
2013-01-08 21:48:00,29.3,23.0,30.29,SSW,203,1.8,3.4,77,2.59,,,4.24,WUHU216HW,2013-01-09 02:48:00,
2013-01-08 21:53:00,29.2,22.9,30.29,SE,135,1.1,3.4,77,2.59,,,4.24,WUHU216HW,2013-01-09 02:53:00,
2013-01-08 21:58:00,29.2,22.9,30.28,SSE,158,1.3,2.2,77,2.59,,,4.24,WUHU216HW,2013-01-09 02:58:00,
2013-01-08 22:03:00,29.2,22.9,30.28,SSE,158,0.9,2.2,77,2.59,,,4.44,WUHU216HW,2013-01-09 03:03:00,
2013-01-08 22:08:00,29.2,22.9,30.28,SE,135,1.1,2.7,77,2.59,,,4.44,WUHU216HW,2013-01-09 03:08:00,
2013-01-08 22:13:00,29.2,22.9,30.28,SSE,158,1.8,2.7,77,2.59,,,4.44,WUHU216HW,2013-01-09 03:13:00,
2013-01-08 22:18:00,29.2,22.5,30.28,SSW,203,1.8,2.7,76,2.59,,,4.44,WUHU216HW,2013-01-09 03:18:00,
2013-01-08 22:23:00,29.2,22.5,30.28,SSE,158,1.8,2.5,76,2.59,,,4.44,WUHU216HW,2013-01-09 03:23:00,
2013-01-08 22:28:00,29.5,22.9,30.28,SW,225,3.4,3.8,76,2.59,,,4.44,WUHU216HW,2013-01-09 03:28:00,
2013-01-08 22:33:00,29.7,23.1,30.28,SSW,203,2.5,4.0,76,2.59,,,4.44,WUHU216HW,2013-01-09 03:33:00,
2013-01-08 22:38:00,29.9,23.2,30.27,SSE,158,2.0,4.0,76,2.59,,,4.44,WUHU216HW,2013-01-09 03:38:00,
2013-01-08 22:43:00,29.9,23.2,30.27,South,180,4.0,4.0,76,2.59,,,4.44,WUHU216HW,2013-01-09 03:43:00,
2013-01-08 22:48:00,30.1,23.4,30.27,WSW,248,2.7,4.0,76,2.59,,,4.44,WUHU216HW,2013-01-09 03:48:00,
2013-01-08 22:53:00,30.2,23.6,30.27,SSW,203,4.3,4.3,76,2.59,,,4.44,WUHU216HW,2013-01-09 03:53:00,
2013-01-08 22:58:00,30.4,23.8,30.27,WSW,248,2.2,4.3,76,2.59,,,4.44,WUHU216HW,2013-01-09 03:58:00,
2013-01-08 23:03:00,30.6,24.0,30.27,SW,225,1.8,4.7,76,2.59,,,4.63,WUHU216HW,2013-01-09 04:03:00,
2013-01-08 23:08:00,30.6,24.0,30.26,SSW,203,2.5,4.7,76,2.59,,,4.63,WUHU216HW,2013-01-09 04:08:00,
2013-01-08 23:13:00,30.6,24.0,30.26,SE,135,2.2,4.9,76,2.59,,,4.63,WUHU216HW,2013-01-09 04:13:00,
2013-01-08 23:18:00,30.6,24.0,30.26,South,180,1.3,4.9,76,2.59,,,4.63,WUHU216HW,2013-01-09 04:18:00,
2013-01-08 23:23:00,30.8,23.8,30.26,SSE,158,4.0,4.0,75,2.59,,,4.63,WUHU216HW,2013-01-09 04:23:00,
2013-01-08 23:28:00,31.0,23.9,30.25,SE,135,4.5,5.4,75,2.59,,,4.63,WUHU216HW,2013-01-09 04:28:00,
2013-01-08 23:33:00,31.3,24.3,30.26,SSW,203,2.0,5.4,75,2.59,,,4.63,WUHU216HW,2013-01-09 04:33:00,
2013-01-08 23:38:00,31.5,24.1,30.26,South,180,4.0,5.1,74,2.59,,,4.63,WUHU216HW,2013-01-09 04:38:00,
2013-01-08 23:43:00,31.7,24.3,30.26,SSW,203,3.4,4.3,74,2.59,,,4.63,WUHU216HW,2013-01-09 04:43:00,
2013-01-08 23:48:00,31.7,24.3,30.26,SW,225,3.4,4.5,74,2.59,,,4.63,WUHU216HW,2013-01-09 04:48:00,
2013-01-08 23:53:00,31.7,24.3,30.26,SE,135,1.3,4.5,74,2.59,,,4.63,WUHU216HW,2013-01-09 04:53:00,
2013-01-08 23:58:00,31.7,24.3,30.26,SSE,158,1.6,4.0,74,2.59,,,4.63,WUHU216HW,2013-01-09 04:58:00,